Weather History for Montgomery, AL

Change the Weather History Date:

Saturday, July 6, 2013

  Actual Average Record
Temperature  
Mean Temperature 76 °F 82 °F  
Max Temperature 78 °F 92 °F 102 °F (1881)
Min Temperature 73 °F 71 °F 61 °F (1970)
Cooling Degree Days 11 16  
Month to date cooling degree days 72 96  
Year to date cooling degree days 922 854  
Since 1 June cooling degree days 563 515  
Growing Degree Days 26 (Base 50)    
Moisture  
Dew Point 72 °F    
Average Humidity 88    
Maximum Humidity 94    
Minimum Humidity 82    
Precipitation  
Precipitation 1.17 in 0.17 in 5.66 in (1916)
Month to date precipitation 2.05 1.06  
Year to date precipitation 31.61 28.57  
Sea Level Pressure  
Sea Level Pressure 30.08 in    
Wind  
Wind Speed 3 mph (East)    
Max Wind Speed 13 mph    
Max Gust Speed 15 mph    
Visibility 7 miles    
Events Rain    
T = Trace of Precipitation, MM = Missing Value Source: NWS Daily Summary

Daily Weather History Graph

Daily Weather History Graph

Search for Another Location

Airport:

Trip Planner

Search our weather history database for the weather conditions in past years. The results will help you decide how hot, cold, wet, or windy it might be!

Date:

Astronomy

Jul. 06, 2013 Rise Set
Actual Time 5:44 AM CDT 7:55 PM CDT
Civil Twilight 5:16 AM CDT 8:24 PM CDT
Nautical Twilight 4:42 AM CDT 8:58 PM CDT
Astronomical Twilight 4:05 AM CDT 9:35 PM CDT
Moon 4:27 AM CDT (7/6) 6:40 PM CDT (7/6)
Length of Visible Light 15h 07m
Length of Day
14h 11m
Waning Crescent, 2% of the Moon is Illuminated
Jul 6
Waning Crescent
Jul 8
New
Jul 15
First Quarter
Jul 22
Full
Jul 29
Last Quarter

Hourly Weather History & Observations

Time (CDT) Temp. Dew Point Humidity Pressure Visibility Wind Dir Wind Speed Gust Speed Precip Events Conditions
12:19 AM 73.4 °F 69.8 °F 88% 30.07 in 10.0 mi ENE 3.5 mph - N/A   Mostly Cloudy
12:53 AM 73.9 °F 70.0 °F 87% 30.07 in 10.0 mi East 3.5 mph - N/A   Overcast
1:38 AM 73.4 °F 69.8 °F 88% 30.06 in 10.0 mi Calm Calm - N/A   Overcast
1:46 AM 73.4 °F 69.8 °F 88% 30.06 in 10.0 mi Calm Calm - N/A   Overcast
1:53 AM 73.9 °F 70.0 °F 87% 30.05 in 10.0 mi Calm Calm - N/A   Overcast
2:53 AM 73.9 °F 70.0 °F 87% 30.06 in 10.0 mi Calm Calm - N/A   Overcast
3:41 AM 73.4 °F 69.8 °F 88% 30.07 in 10.0 mi NE 3.5 mph - N/A   Overcast
3:53 AM 73.9 °F 70.0 °F 87% 30.07 in 10.0 mi ENE 3.5 mph - N/A   Overcast
4:24 AM 73.4 °F 69.8 °F 88% 30.08 in 4.0 mi ENE 3.5 mph - 0.01 in Rain Light Rain
4:53 AM 73.0 °F 70.0 °F 90% 30.08 in 9.0 mi ENE 3.5 mph - 0.01 in   Overcast
5:00 AM 73.4 °F 69.8 °F 88% 30.08 in 7.0 mi East 3.5 mph - 0.00 in Rain Light Rain
5:23 AM 73.4 °F 69.8 °F 88% 30.09 in 5.0 mi East 4.6 mph - 0.01 in   Overcast
5:53 AM 73.0 °F 70.0 °F 90% 30.09 in 3.0 mi East 5.8 mph - 0.02 in Rain Light Rain
6:08 AM 73.4 °F 71.6 °F 94% 30.09 in 4.0 mi East 4.6 mph - 0.00 in Rain Light Rain
6:15 AM 73.4 °F 71.6 °F 94% 30.09 in 4.0 mi East 4.6 mph - 0.00 in Rain Light Rain
6:53 AM 73.0 °F 71.1 °F 93% 30.09 in 7.0 mi East 4.6 mph - 0.00 in   Overcast
7:33 AM 73.4 °F 71.6 °F 94% 30.10 in 5.0 mi East 5.8 mph - 0.01 in Rain Light Rain
7:53 AM 73.9 °F 71.1 °F 91% 30.09 in 10.0 mi East 5.8 mph - 0.01 in   Overcast
8:53 AM 75.0 °F 72.0 °F 90% 30.10 in 10.0 mi East 6.9 mph - 0.00 in   Overcast
9:39 AM 77.0 °F 71.6 °F 83% 30.10 in 10.0 mi East 5.8 mph - 0.00 in   Overcast
9:53 AM 77.0 °F 73.0 °F 88% 30.09 in 10.0 mi East 6.9 mph - 0.00 in   Overcast
10:40 AM 78.8 °F 71.6 °F 78% 30.10 in 5.0 mi Calm Calm - 0.00 in Rain Rain
10:44 AM 77.0 °F 73.4 °F 89% 30.10 in 2.5 mi Calm Calm - 0.01 in Rain Rain
10:47 AM 77.0 °F 73.4 °F 89% 30.10 in 1.8 mi Calm Calm - 0.02 in Rain Heavy Rain
10:53 AM 77.0 °F 73.0 °F 88% 30.09 in 1.2 mi Calm Calm - 0.07 in Rain Heavy Rain
10:55 AM 77.0 °F 73.4 °F 89% 30.10 in 1.2 mi Calm Calm - 0.01 in Rain Heavy Rain
10:59 AM 77.0 °F 73.4 °F 89% 30.10 in 1.5 mi Calm Calm - 0.03 in Rain Heavy Rain
11:06 AM 77.0 °F 73.4 °F 89% 30.10 in 3.0 mi Calm Calm - 0.05 in Rain Rain
11:23 AM 77.0 °F 73.4 °F 89% 30.11 in 8.0 mi SE 4.6 mph - 0.05 in Rain Light Rain
11:38 AM 75.2 °F 71.6 °F 89% 30.11 in 1.8 mi East 10.4 mph - 0.08 in Rain Heavy Rain
11:41 AM 73.4 °F 71.6 °F 94% 30.11 in 1.0 mi East 10.4 mph - 0.13 in Rain Heavy Rain
11:44 AM 73.4 °F 71.6 °F 94% 30.11 in 0.8 mi East 9.2 mph - 0.22 in Rain Heavy Rain
11:53 AM 73.9 °F 71.1 °F 91% 30.10 in 0.8 mi SE 4.6 mph - 0.46 in Rain Heavy Rain
11:59 AM 73.4 °F 71.6 °F 94% 30.10 in 1.5 mi Calm Calm - 0.05 in Rain Heavy Rain
12:06 PM 73.4 °F 71.6 °F 94% 30.10 in 3.0 mi Calm Calm - 0.08 in Rain Rain
12:20 PM 73.4 °F 71.6 °F 94% 30.11 in 1.8 mi South 3.5 mph - 0.13 in Rain Heavy Rain
12:25 PM 73.4 °F 71.6 °F 94% 30.10 in 0.8 mi Calm Calm - 0.21 in Rain Heavy Rain
12:44 PM 73.4 °F 69.8 °F 88% 30.09 in 1.0 mi Calm Calm - 0.42 in Rain Heavy Rain
12:53 PM 73.0 °F 70.0 °F 90% 30.08 in 2.0 mi Calm Calm - 0.46 in Rain Rain
1:08 PM 73.4 °F 71.6 °F 94% 30.09 in 5.0 mi Calm Calm - 0.02 in Rain Light Rain
1:21 PM 73.4 °F 71.6 °F 94% 30.09 in 10.0 mi Calm Calm - 0.03 in Rain Light Rain
1:42 PM 75.2 °F 71.6 °F 89% 30.08 in 3.0 mi Calm Calm - 0.06 in Rain Rain
1:53 PM 75.0 °F 72.0 °F 90% 30.07 in 7.0 mi Calm Calm - 0.08 in Rain Light Rain
2:10 PM 75.2 °F 71.6 °F 89% 30.07 in 5.0 mi Calm Calm - 0.01 in Rain Rain
2:53 PM 77.0 °F 72.0 °F 84% 30.06 in 10.0 mi Calm Calm - 0.05 in Rain Light Rain
3:26 PM 78.8 °F 71.6 °F 78% 30.06 in 10.0 mi East 4.6 mph - 0.00 in   Overcast
3:53 PM 78.1 °F 72.0 °F 81% 30.04 in 10.0 mi Calm Calm - 0.00 in   Mostly Cloudy
4:30 PM 78.8 °F 73.4 °F 83% 30.05 in 10.0 mi ESE 3.5 mph - 0.00 in Rain Light Rain
4:53 PM 78.1 °F 73.0 °F 84% 30.04 in 10.0 mi SE 5.8 mph - 0.00 in Rain Light Rain
5:12 PM 78.8 °F 73.4 °F 83% 30.05 in 8.0 mi SE 4.6 mph - 0.00 in Rain Light Rain
5:19 PM 78.8 °F 73.4 °F 83% 30.05 in 9.0 mi Calm Calm - 0.00 in Rain Light Rain
5:47 PM 78.8 °F 73.4 °F 83% 30.04 in 10.0 mi ESE 4.6 mph - 0.00 in Rain Light Rain
5:53 PM 78.1 °F 73.9 °F 87% 30.04 in 10.0 mi ESE 5.8 mph - 0.01 in Rain Light Rain
6:07 PM 78.8 °F 73.4 °F 83% 30.04 in 10.0 mi ESE 5.8 mph - 0.00 in Rain Light Rain
6:14 PM 78.8 °F 73.4 °F 83% 30.04 in 10.0 mi East 5.8 mph - 0.00 in Rain Light Rain
6:53 PM 77.0 °F 73.0 °F 88% 30.04 in 10.0 mi SE 4.6 mph - 0.00 in   Overcast
7:53 PM 75.9 °F 73.0 °F 91% 30.05 in 10.0 mi SE 3.5 mph - 0.00 in   Scattered Clouds
8:13 PM 75.2 °F 73.4 °F 94% 30.06 in 10.0 mi Calm Calm - 0.00 in   Mostly Cloudy
8:26 PM 75.2 °F 73.4 °F 94% 30.06 in 10.0 mi Calm Calm - 0.00 in   Scattered Clouds
8:53 PM 75.9 °F 72.0 °F 87% 30.06 in 10.0 mi Calm Calm - 0.00 in   Partly Cloudy
9:53 PM 75.0 °F 72.0 °F 90% 30.08 in 10.0 mi Calm Calm - 0.00 in Rain Light Rain
10:53 PM 75.0 °F 72.0 °F 90% 30.09 in 10.0 mi Calm Calm - 0.00 in   Clear
11:53 PM 75.0 °F 72.0 °F 90% 30.09 in 10.0 mi ESE 3.5 mph - 0.00 in Rain Light Rain